Flag for Austria Weather past 2 weeks in Graz, Styria, Austria

Now
45 °F

Scattered clouds.


Feels Like: 38 °F
Forecast: 30 / 49 °F
Wind: 15 mph from North

Location: Graz-Thalerhof-Flughafen

Current Time: Mar 6, 2015 at 3:53:24 PM

Latest Report: Mar 6, 2015 at 3:20 PM


Visibility: N/A

Pressure: 30.45 "Hg

Humidity: 37%

Dew point: 19 °F

Location of GrazLocation

Historic Weather in Graz — Graph

°F

Graz temperature yesterday

Maximum temperature yesterday: 46 °F (at 10:20 AM)
Minimum temperature yesterday: 34 °F (at 5:50 AM)
Average temperature yesterday: 40 °F

Past Weeks' High & Low Weather Summary

 TemperatureHumidityPressure
High57 °F (Mar 2, 1:50 PM)100% (Feb 19, 10:50 PM)30.51 "Hg (Feb 19, 10:50 PM)
Low21 °F (Feb 20, 7:20 AM)20% (Mar 3, 2:20 PM)29.59 "Hg (Feb 23, 3:50 PM)
Average40 °F70%29.98 "Hg
* Reported Feb 19 2:20 PM — Mar 6 2:50 PM, Graz, Weather by CustomWeather, © 2015

Note: Actual official high and low records may vary slightly from our data, if they occured in-between our weather recording intervals... More about our weather records

Advertising

Graz weather history for previous 24 hours

 ConditionsComfort  
Time TempWeatherWind HumidityBarometerVisibility
2:50 PM
Fri, Mar 6
46 °FScattered clouds.16 mph32%30.45 "HgN/A
2:20 PM46 °FScattered clouds.17 mph32%30.45 "HgN/A
1:50 PM46 °FScattered clouds.16 mph34%30.48 "HgN/A
1:20 PM46 °FScattered clouds.14 mph37%30.48 "HgN/A
12:50 PM46 °FScattered clouds.16 mph37%30.48 "HgN/A
12:20 PM46 °FScattered clouds.16 mph37%30.51 "HgN/A
11:50 AM45 °FScattered clouds.16 mph39%30.51 "HgN/A
11:20 AM46 °FScattered clouds.16 mph40%30.51 "HgN/A
10:50 AM43 °FScattered clouds.18 mph42%30.51 "HgN/A
10:20 AM43 °FScattered clouds.8 mph42%30.51 "HgN/A
9:50 AM41 °FPassing clouds.5 mph53%30.51 "HgN/A
9:20 AM41 °FPassing clouds.6 mph53%30.51 "HgN/A
8:50 AM39 °FPassing clouds.5 mph56%30.51 "HgN/A
8:20 AM36 °FPassing clouds.No wind65%30.51 "HgN/A
7:50 AM32 °FPassing clouds.2 mph69%30.48 "HgN/A
7:20 AM30 °FPassing clouds.1 mph69%30.48 "HgN/A
6:50 AM28 °FPassing clouds.1 mph69%30.48 "HgN/A
6:20 AM28 °FPassing clouds.2 mph69%30.48 "HgN/A
5:50 AM28 °FPassing clouds.1 mph64%30.45 "HgN/A
5:20 AM32 °FPassing clouds.1 mph60%30.45 "HgN/A
4:50 AM34 °FPassing clouds.2 mph56%30.45 "HgN/A
4:20 AM34 °FPassing clouds.2 mph56%30.45 "HgN/A
3:50 AM34 °FPassing clouds.7 mph56%30.45 "HgN/A
3:20 AM34 °FChilly.6 mph51%30.45 "HgN/A
2:50 AM32 °FChilly.7 mph55%30.45 "HgN/A
2:20 AM34 °FPassing clouds.10 mph56%30.45 "HgN/A
1:50 AM34 °FChilly.10 mph56%30.45 "HgN/A
1:20 AM32 °FChilly.9 mph60%30.45 "HgN/A
12:50 AM36 °FChilly.12 mph56%30.45 "HgN/A
12:20 AM37 °FPassing clouds.13 mph52%30.42 "HgN/A
11:50 PM
Thu, Mar 5
37 °FPassing clouds.15 mph52%30.42 "HgN/A
11:20 PM37 °FPassing clouds.12 mph52%30.42 "HgN/A
10:50 PM37 °FPassing clouds.8 mph52%30.42 "HgN/A
10:20 PM39 °FPassing clouds.9 mph48%30.42 "HgN/A
9:50 PM39 °FPassing clouds.13 mph52%30.39 "HgN/A
9:20 PM37 °FPassing clouds.6 mph56%30.39 "HgN/A
8:50 PM37 °FPassing clouds.6 mph52%30.39 "HgN/A
8:20 PM37 °FPassing clouds.10 mph48%30.36 "HgN/A
7:50 PM39 °FPassing clouds.9 mph48%30.36 "HgN/A
7:20 PM39 °FPartly cloudy.10 mph48%30.36 "HgN/A
6:50 PM41 °FPartly cloudy.15 mph45%30.33 "HgN/A
6:20 PM41 °FPartly cloudy.15 mph45%30.33 "HgN/A
5:50 PM41 °FPassing clouds.16 mph45%30.33 "HgN/A
5:20 PM43 °FBroken clouds.16 mph42%30.33 "HgN/A
4:50 PM43 °FPartly sunny.20 mph39%30.30 "HgN/A
4:20 PM45 °FScattered clouds.20 mph37%30.30 "HgN/A
3:50 PM45 °FScattered clouds.22 mph34%30.30 "HgN/A
3:20 PM45 °FScattered clouds.21 mph34%30.30 "HgN/A
Weather by CustomWeather, © 2015

See weather overviewHow to use our weather pages